Weather History for Whiting Fld NAS, FL

Change the Weather History Date:

Friday, November 30, 2012

  Actual Average Record
Temperature  
Mean Temperature 62 °F -  
Max Temperature 73 °F 64 °F 75 °F (2004)
Min Temperature 50 °F 45 °F 32 °F (2013)
Degree Days  
Heating Degree Days 4    
Growing Degree Days 12 (Base 50)    
Moisture  
Dew Point 54 °F    
Average Humidity 78    
Maximum Humidity 90    
Minimum Humidity 52    
Precipitation  
Precipitation 0.00 in - - ()
Sea Level Pressure  
Sea Level Pressure 30.23 in    
Wind  
Wind Speed 4 mph (ENE)    
Max Wind Speed 7 mph    
Max Gust Speed -    
Visibility 8 miles    
Events      
Averages and records for this station are not official NWS values.
T = Trace of Precipitation, MM = Missing Value Source: NWS Daily Summary

Daily Weather History Graph

Daily Weather History Graph

Search for Another Location

Airport:

Trip Planner

Search our weather history database for the weather conditions in past years. The results will help you decide how hot, cold, wet, or windy it might be!

Date:

Astronomy

Nov. 30, 2012 Rise Set
Actual Time 6:27 AM CST 4:46 PM CST
Civil Twilight 6:01 AM CST 5:12 PM CST
Nautical Twilight 5:31 AM CST 5:42 PM CST
Astronomical Twilight 5:02 AM CST 6:11 PM CST
Moon 6:39 PM CST (11/30) 7:59 AM CST (11/30)
Length of Visible Light 11h 11m
Length of Day
10h 18m
Waning Gibbous, 96% of the Moon is Illuminated
Nov 30
Waning Gibbous
Dec 6
Last Quarter
Dec 13
New
Dec 19
First Quarter
Dec 28
Full

Hourly Weather History & Observations

Time (CST) Temp. Dew Point Humidity Pressure Visibility Wind Dir Wind Speed Gust Speed Precip Events Conditions
12:56 AM 53.1 °F 48.0 °F 83% 30.25 in 7.0 mi North 4.6 mph - N/A   Mostly Cloudy
1:56 AM 52.0 °F 48.0 °F 86% 30.25 in 7.0 mi North 3.5 mph - N/A   Clear
2:56 AM 50.0 °F 46.9 °F 89% 30.24 in 6.0 mi North 4.6 mph - N/A   Clear
3:56 AM 51.1 °F 46.9 °F 86% 30.24 in 6.0 mi North 3.5 mph - N/A   Clear
4:56 AM 51.1 °F 46.9 °F 86% 30.25 in 6.0 mi NNE 3.5 mph - N/A   Scattered Clouds
5:56 AM 51.1 °F 46.9 °F 86% 30.26 in 5.0 mi NNE 4.6 mph - N/A   Mostly Cloudy
6:32 AM 51.8 °F 48.2 °F 88% 30.30 in 5.0 mi NE 3.5 mph - N/A   Mostly Cloudy
6:56 AM 52.0 °F 48.9 °F 89% 30.26 in 5.0 mi NE 3.5 mph - N/A   Mostly Cloudy
7:56 AM 55.0 °F 51.1 °F 86% 30.27 in 6.0 mi ENE 3.5 mph - N/A   Mostly Cloudy
8:56 AM 61.0 °F 55.0 °F 81% 30.27 in 8.0 mi East 6.9 mph - N/A   Scattered Clouds
9:56 AM 66.0 °F 55.9 °F 70% 30.27 in 10.0 mi Variable 4.6 mph - N/A   Mostly Cloudy
10:56 AM 69.1 °F 57.0 °F 65% 30.25 in 10.0 mi Calm Calm - N/A   Scattered Clouds
11:56 AM 72.0 °F 57.0 °F 59% 30.23 in 10.0 mi East 4.6 mph - N/A   Mostly Cloudy
12:56 PM 73.0 °F 57.0 °F 57% 30.20 in 10.0 mi Calm Calm - N/A   Mostly Cloudy
1:56 PM 73.9 °F 55.0 °F 52% 30.18 in 10.0 mi ESE 6.9 mph - N/A   Mostly Cloudy
2:56 PM 73.9 °F 55.0 °F 52% 30.18 in 10.0 mi SE 5.8 mph - N/A   Mostly Cloudy
3:56 PM 71.1 °F 57.9 °F 63% 30.19 in 10.0 mi South 4.6 mph - N/A   Mostly Cloudy
4:56 PM 66.9 °F 59.0 °F 76% 30.19 in 10.0 mi Calm Calm - N/A   Mostly Cloudy
5:56 PM 64.9 °F 57.9 °F 78% 30.19 in 10.0 mi Calm Calm - N/A   Mostly Cloudy
6:56 PM 64.9 °F 59.0 °F 81% 30.21 in 10.0 mi East 3.5 mph - N/A   Mostly Cloudy
7:56 PM 61.0 °F 57.9 °F 90% 30.21 in 9.0 mi Calm Calm - N/A   Mostly Cloudy
8:56 PM 63.0 °F 57.0 °F 81% 30.21 in 10.0 mi East 4.6 mph - N/A   Mostly Cloudy
9:56 PM 60.1 °F 55.9 °F 86% 30.22 in 10.0 mi East 3.5 mph - N/A   Scattered Clouds
10:39 PM 59.0 °F 55.4 °F 88% 30.25 in 9.0 mi East 4.6 mph - N/A   Scattered Clouds
10:56 PM 57.9 °F 55.0 °F 90% 30.21 in 8.0 mi Calm Calm - N/A   Mostly Cloudy
11:56 PM 60.1 °F 55.9 °F 86% 30.20 in 10.0 mi Calm Calm - N/A   Overcast